Hat Yai, Thailand

10:40 PM +07 on August 16, 2017 (GMT +0700)
Hat Yai International

Weather History for VTSS - November, 2012

Change the Weather History Date:

Monday, November 26, 2012

  Actual Average Record
Temperature  
Mean Temperature 81 °F -  
Max Temperature 88 °F 83 °F 92 °F (2016)
Min Temperature 74 °F 73 °F 73 °F (1997)
Cooling Degree Days 16    
Growing Degree Days 31 (Base 50)    
Moisture  
Dew Point 76 °F    
Average Humidity 85    
Maximum Humidity 94    
Minimum Humidity 73    
Precipitation  
Precipitation 0.16 in - - ()
Sea Level Pressure  
Sea Level Pressure 29.82 in    
Wind  
Wind Speed 1 mph ()    
Max Wind Speed 9 mph    
Max Gust Speed -    
Visibility 4.6 miles    
Events Fog , Rain , Thunderstorm    
Averages and records for this station are not official NWS values.
T = Trace of Precipitation, MM = Missing Value Source: Averaged Metar Reports

Daily Weather History Graph

Daily Weather History Graph

Search for Another Location

Airport or City:

Trip Planner

Search our weather history database for the weather conditions in past years. The results will help you decide how hot, cold, wet, or windy it might be!

Date:

Astronomy

Nov. 26, 2012 Rise Set
Actual Time 6:12 AM +07 5:58 PM +07
Civil Twilight 5:50 AM +07 6:20 PM +07
Nautical Twilight 5:24 AM +07 6:46 PM +07
Astronomical Twilight 4:58 AM +07 7:12 PM +07
Moon 4:18 PM +07 (11/26) 4:10 AM +07 (11/26)
Length of Visible Light 12h 30m
Length of Day
11h 45m
Waxing Gibbous, 95% of the Moon is Illuminated
Nov 26
Waxing Gibbous
Nov 28
Full
Dec 6
Last Quarter
Dec 13
New
Dec 20
First Quarter

Hourly Weather History & Observations

Time (+07) Temp. Heat Index Dew Point Humidity Pressure Visibility Wind Dir Wind Speed Gust Speed Precip Events Conditions
12:00 AM 77.0 °F - 73.4 °F 89% 29.86 in 6.2 mi Calm Calm - N/A   Mostly Cloudy
12:30 AM 77.0 °F - 73.4 °F 89% 29.86 in 6.2 mi Calm Calm - N/A   Mostly Cloudy
1:00 AM 76 °F - 73 °F 87% 29.85 in 5 mi Calm Calm - -   Mist
1:00 AM 77.0 °F - 73.4 °F 89% 29.83 in 5.0 mi Calm Calm - N/A   Mostly Cloudy
2:30 AM 77.0 °F - 73.4 °F 89% 29.80 in 5.0 mi Calm Calm - N/A   Mostly Cloudy
3:00 AM 77.0 °F - 73.4 °F 89% 29.80 in 5.0 mi Calm Calm - N/A   Mostly Cloudy
3:30 AM 75.2 °F - 73.4 °F 94% 29.80 in 5.0 mi Calm Calm - N/A   Mostly Cloudy
4:30 AM 75.2 °F - 73.4 °F 94% 29.80 in 5.0 mi Calm Calm - N/A   Mostly Cloudy
5:00 AM 75.2 °F - 73.4 °F 94% 29.80 in 1.2 mi Calm Calm - N/A   Mostly Cloudy
5:30 AM 75.2 °F - 73.4 °F 94% 29.80 in 1.2 mi Calm Calm - N/A   Mostly Cloudy
6:00 AM 75.2 °F - 73.4 °F 94% 29.83 in 0.6 mi Calm Calm - N/A Fog Fog
6:30 AM 75.2 °F - 73.4 °F 94% 29.83 in 0.1 mi Calm Calm - N/A Fog Fog
7:00 AM 75 °F - 73 °F 90% 29.84 in 0 mi Calm Calm - - Fog Partial Fog
7:00 AM 75.2 °F - 73.4 °F 94% 29.83 in 0.3 mi Calm Calm - N/A Fog Fog
7:30 AM 75.2 °F - 73.4 °F 94% 29.86 in 0.6 mi Calm Calm - N/A Fog Fog
8:00 AM 77.0 °F - 73.4 °F 89% 29.86 in 0.6 mi Calm Calm - N/A Fog Fog
8:30 AM 77.0 °F - 73.4 °F 89% 29.89 in 1.2 mi Calm Calm - N/A   Overcast
9:00 AM 77.0 °F - 75.2 °F 94% 29.89 in 2.5 mi Calm Calm - N/A   Overcast
9:30 AM 78.8 °F - 77.0 °F 94% 29.89 in 2.5 mi Calm Calm - N/A   Overcast
10:00 AM 80.6 °F 88.1 °F 78.8 °F 94% 29.89 in 4.3 mi Calm Calm - N/A   Overcast
10:30 AM 86.0 °F 104.7 °F 82.4 °F 89% 29.89 in 5.6 mi WSW 2.3 mph - N/A   Mostly Cloudy
11:00 AM 86.0 °F 104.7 °F 82.4 °F 89% 29.89 in 6.2 mi SW 2.3 mph - N/A   Mostly Cloudy
11:30 AM 86.0 °F 101.9 °F 80.6 °F 84% 29.86 in 6.2 mi NE 3.5 mph - N/A   Mostly Cloudy
12:00 PM 87.8 °F 104.9 °F 80.6 °F 79% 29.83 in 6.2 mi ESE 2.3 mph - N/A   Mostly Cloudy
12:30 PM 87.8 °F 104.9 °F 80.6 °F 79% 29.80 in 6.2 mi ENE 5.8 mph - N/A   Mostly Cloudy
1:00 PM 89 °F - 81 °F 73% 29.81 in 6 mi ESE 6.9 mph - -   Partly Cloudy
1:00 PM 89.6 °F 111.1 °F 82.4 °F 79% 29.80 in 6.2 mi ESE 6.9 mph - N/A   Mostly Cloudy
1:30 PM 89.6 °F 108.2 °F 80.6 °F 75% 29.77 in 6.2 mi North 4.6 mph - N/A   Mostly Cloudy
2:00 PM 86.0 °F 99.3 °F 78.8 °F 79% 29.77 in 6.2 mi NE 3.5 mph - N/A   Mostly Cloudy
2:30 PM 86.0 °F 99.3 °F 78.8 °F 79% 29.74 in 6.2 mi NNE 5.8 mph - N/A   Mostly Cloudy
3:00 PM 86.0 °F 96.9 °F 77.0 °F 74% 29.74 in 5.6 mi NNE 5.8 mph - N/A Rain Light Rain
3:30 PM 86.0 °F 99.3 °F 78.8 °F 79% 29.74 in 6.2 mi NE 6.9 mph - N/A   Mostly Cloudy
4:00 PM 86.0 °F 96.9 °F 77.0 °F 74% 29.74 in 6.2 mi ENE 9.2 mph - N/A   Mostly Cloudy
4:30 PM 84.2 °F 94.1 °F 77.0 °F 79% 29.74 in 6.2 mi East 5.8 mph - N/A   Mostly Cloudy
5:00 PM 84.2 °F 92.3 °F 75.2 °F 74% 29.77 in 6.2 mi ENE 5.8 mph - N/A   Overcast
5:30 PM 82.4 °F 89.5 °F 75.2 °F 79% 29.77 in 6.2 mi NE 4.6 mph - N/A   Mostly Cloudy
6:00 PM 82.4 °F 89.5 °F 75.2 °F 79% 29.77 in 6.2 mi NE 4.6 mph - N/A   Mostly Cloudy
6:30 PM 82.4 °F 89.5 °F 75.2 °F 79% 29.80 in 5.6 mi East 2.3 mph - N/A Rain Light Rain
7:00 PM 80 °F - 74 °F 76% 29.83 in 6 mi Calm Calm - - Rain , Thunderstorm Thunderstorms and Rain
7:00 PM 80.6 °F 85.4 °F 73.4 °F 79% 29.83 in 5.6 mi SSE 3.5 mph - N/A Rain Rain
7:30 PM 80.6 °F 86.2 °F 75.2 °F 84% 29.83 in 5.6 mi Calm Calm - N/A Rain Light Rain
8:00 PM 78.8 °F - 73.4 °F 83% 29.83 in 5.6 mi SSW 2.3 mph - N/A Rain Light Rain
8:30 PM 78.8 °F - 73.4 °F 83% 29.86 in 5.6 mi WSW 2.3 mph - N/A Rain Light Rain
9:00 PM 78.8 °F - 73.4 °F 83% 29.86 in 5.6 mi SSW 3.5 mph - N/A Rain Light Rain
9:30 PM 78.8 °F - 73.4 °F 83% 29.86 in 5.6 mi South 3.5 mph - N/A Rain Light Rain
10:00 PM 78.8 °F - 73.4 °F 83% 29.86 in 5.0 mi SSW 3.5 mph - N/A Rain Light Rain
10:30 PM 77.0 °F - 73.4 °F 89% 29.86 in 5.0 mi SSW 3.5 mph - N/A Rain Light Rain
11:00 PM 77.0 °F - 73.4 °F 89% 29.86 in 5.0 mi SW 2.3 mph - N/A   Overcast
11:30 PM 77.0 °F - 73.4 °F 89% 29.86 in 5.0 mi Calm Calm - N/A   Overcast